• In Belarus
  • List of Countries
  • For 7 days
  • Water Temperature
  • Satellite Maps
  • Weather Map
  • Weather Widgets
  • user-avatar
    Login

    Hourly Weather Abovyan

    Today, 20 July, Saturday

    Time Temperature Precipitation Wind Pressure Humidity
    00:00 +24°C° 0 mm 3 mps 672 mmHg 66%
    01:00 +24°C° 0 mm 3 mps 672 mmHg 67%
    02:00 +22°C° 0 mm 3 mps 672 mmHg 69%
    03:00 +23°C° 0 mm 2 mps 671 mmHg 71%
    04:00 +24°C° 0 mm 2 mps 672 mmHg 69%
    05:00 +24°C° 0 mm 2 mps 673 mmHg 68%
    06:00 +25°C° 0 mm 2 mps 673 mmHg 66%
    07:00 +27°C° 0 mm 2 mps 673 mmHg 60%
    08:00 +28°C° 0 mm 2 mps 674 mmHg 54%
    09:00 +30°C° 0 mm 2 mps 674 mmHg 48%
    10:00 +33°C° 0 mm 3 mps 674 mmHg 44%
    11:00 +34°C° 0 mm 3 mps 674 mmHg 40%
    12:00 +35°C° 0 mm 3 mps 674 mmHg 36%
    13:00 +36°C° 0 mm 4 mps 674 mmHg 34%
    14:00 +37°C° 0 mm 4 mps 674 mmHg 33%
    15:00 +37°C° 0 mm 4 mps 673 mmHg 32%
    16:00 +36°C° 0 mm 5 mps 673 mmHg 36%
    17:00 +36°C° 0 mm 5 mps 673 mmHg 39%
    18:00 +35°C° 0 mm 5 mps 673 mmHg 43%
    19:00 +33°C° 0 mm 5 mps 673 mmHg 48%
    20:00 +29°C° 0 mm 5 mps 673 mmHg 54%
    21:00 +27°C° 0 mm 5 mps 673 mmHg 59%
    22:00 +27°C° 0 mm 4 mps 673 mmHg 61%
    23:00 +26°C° 0 mm 3 mps 673 mmHg 62%

    Tomorrow, 21 July, Sunday

    Time Temperature Precipitation Wind Pressure Humidity
    00:00 +25°C° 0 mm 3 mps 673 mmHg 64%
    01:00 +25°C° 0 mm 2 mps 673 mmHg 64%
    02:00 +24°C° 0 mm 2 mps 673 mmHg 65%
    03:00 +23°C° 0 mm 2 mps 672 mmHg 65%
    04:00 +24°C° 0 mm 2 mps 673 mmHg 63%
    05:00 +24°C° 0 mm 2 mps 673 mmHg 60%
    06:00 +25°C° 0 mm 2 mps 673 mmHg 58%
    07:00 +27°C° 0 mm 2 mps 673 mmHg 51%
    08:00 +29°C° 0 mm 2 mps 673 mmHg 43%
    09:00 +32°C° 0 mm 2 mps 674 mmHg 36%
    10:00 +34°C° 0 mm 3 mps 674 mmHg 32%
    11:00 +36°C° 0 mm 3 mps 674 mmHg 27%
    12:00 +38°C° 0 mm 4 mps 674 mmHg 23%
    13:00 +40°C° 0 mm 5 mps 674 mmHg 22%
    14:00 +40°C° 0 mm 5 mps 673 mmHg 21%
    15:00 +41°C° 0 mm 6 mps 673 mmHg 20%
    16:00 +40°C° 0 mm 5 mps 673 mmHg 25%
    17:00 +39°C° 0 mm 5 mps 673 mmHg 30%
    18:00 +37°C° 0 mm 5 mps 673 mmHg 34%
    19:00 +35°C° 0 mm 5 mps 672 mmHg 37%
    20:00 +33°C° 0 mm 4 mps 672 mmHg 39%
    21:00 +30°C° 0 mm 4 mps 672 mmHg 42%
    22:00 +29°C° 0 mm 4 mps 672 mmHg 44%
    23:00 +28°C° 0 mm 3 mps 672 mmHg 46%

    Day after tomorrow, 22 July, Monday

    Time Temperature Precipitation Wind Pressure Humidity
    00:00 +26°C° 0 mm 3 mps 672 mmHg 48%
    01:00 +26°C° 0 mm 3 mps 671 mmHg 50%
    02:00 +25°C° 0 mm 2 mps 671 mmHg 52%
    03:00 +25°C° 0 mm 2 mps 671 mmHg 54%
    04:00 +25°C° 0 mm 2 mps 671 mmHg 52%
    05:00 +26°C° 0 mm 2 mps 671 mmHg 51%
    06:00 +26°C° 0 mm 1 mps 671 mmHg 50%
    07:00 +28°C° 0 mm 2 mps 671 mmHg 44%
    08:00 +31°C° 0 mm 2 mps 672 mmHg 38%
    09:00 +34°C° 0 mm 2 mps 672 mmHg 31%
    10:00 +36°C° 0 mm 2 mps 672 mmHg 28%
    11:00 +37°C° 0 mm 3 mps 672 mmHg 25%
    12:00 +39°C° 0 mm 3 mps 672 mmHg 21%
    13:00 +40°C° 0 mm 3 mps 671 mmHg 20%
    14:00 +42°C° 0 mm 3 mps 671 mmHg 18%
    15:00 +43°C° 0 mm 3 mps 671 mmHg 17%
    16:00 +42°C° 0 mm 4 mps 671 mmHg 21%
    17:00 +41°C° 0 mm 4 mps 671 mmHg 26%
    18:00 +38°C° 0 mm 4 mps 670 mmHg 30%
    19:00 +36°C° 0 mm 4 mps 670 mmHg 37%
    20:00 +33°C° 0 mm 4 mps 670 mmHg 44%
    21:00 +29°C° 0 mm 4 mps 670 mmHg 50%
    22:00 +28°C° 0 mm 4 mps 670 mmHg 53%
    23:00 +27°C° 0 mm 3 mps 670 mmHg 55%

    23 July, Tuesday

    Time Temperature Precipitation Wind Pressure Humidity
    00:00 +26°C° 0 mm 3 mps 670 mmHg 57%
    01:00 +25°C° 0 mm 3 mps 670 mmHg 59%
    02:00 +25°C° 0 mm 2 mps 669 mmHg 60%
    03:00 +24°C° 0 mm 2 mps 669 mmHg 62%
    04:00 +24°C° 0 mm 2 mps 670 mmHg 61%
    05:00 +25°C° 0 mm 2 mps 670 mmHg 60%
    06:00 +25°C° 0 mm 2 mps 670 mmHg 58%
    07:00 +27°C° 0 mm 2 mps 670 mmHg 53%
    08:00 +29°C° 0 mm 2 mps 670 mmHg 48%
    09:00 +31°C° 0 mm 1 mps 671 mmHg 43%
    10:00 +34°C° 0 mm 2 mps 670 mmHg 39%
    11:00 +35°C° 0 mm 2 mps 670 mmHg 34%
    12:00 +37°C° 0 mm 2 mps 670 mmHg 30%
    13:00 +38°C° 0.1 mm 2 mps 670 mmHg 28%
    14:00 +38°C° 0.1 mm 2 mps 670 mmHg 27%
    15:00 +39°C° 0.1 mm 2 mps 669 mmHg 26%
    16:00 +38°C° 0.1 mm 3 mps 669 mmHg 30%
    17:00 +37°C° 0.1 mm 3 mps 669 mmHg 35%
    18:00 +35°C° 0.1 mm 4 mps 669 mmHg 39%
    19:00 +33°C° 0 mm 4 mps 669 mmHg 46%
    20:00 +30°C° 0 mm 4 mps 669 mmHg 52%
    21:00 +27°C° 0 mm 4 mps 669 mmHg 58%
    22:00 +27°C° 0 mm 3 mps 669 mmHg 60%
    23:00 +26°C° 0 mm 3 mps 669 mmHg 62%

    24 July, Wednesday

    Time Temperature Precipitation Wind Pressure Humidity
    00:00 +25°C° 0 mm 2 mps 669 mmHg 64%
    01:00 +25°C° 0 mm 2 mps 669 mmHg 65%
    02:00 +24°C° 0 mm 2 mps 669 mmHg 66%
    03:00 +24°C° 0 mm 2 mps 669 mmHg 67%
    04:00 +24°C° 0 mm 1 mps 669 mmHg 66%
    05:00 +25°C° 0 mm 1 mps 669 mmHg 64%
    06:00 +25°C° 0 mm 1 mps 670 mmHg 62%
    07:00 +27°C° 0 mm 1 mps 670 mmHg 55%
    08:00 +29°C° 0 mm 1 mps 670 mmHg 48%
    09:00 +31°C° 0 mm 1 mps 670 mmHg 41%
    10:00 +34°C° 0 mm 2 mps 670 mmHg 34%
    11:00 +36°C° 0 mm 2 mps 670 mmHg 26%
    12:00 +38°C° 0 mm 3 mps 671 mmHg 18%
    13:00 +38°C° 0 mm 3 mps 670 mmHg 16%
    14:00 +40°C° 0 mm 4 mps 670 mmHg 15%
    15:00 +41°C° 0 mm 4 mps 670 mmHg 13%
    16:00 +41°C° 0 mm 4 mps 670 mmHg 14%
    17:00 +40°C° 0 mm 5 mps 670 mmHg 15%
    18:00 +40°C° 0 mm 5 mps 670 mmHg 16%
    19:00 +36°C° 0 mm 5 mps 670 mmHg 22%
    20:00 +33°C° 0 mm 4 mps 670 mmHg 28%
    21:00 +28°C° 0 mm 4 mps 670 mmHg 34%
    22:00 +27°C° 0 mm 3 mps 669 mmHg 35%
    23:00 +26°C° 0 mm 3 mps 669 mmHg 37%

    25 July, Thursday

    Time Temperature Precipitation Wind Pressure Humidity
    00:00 +25°C° 0 mm 2 mps 669 mmHg 39%
    01:00 +25°C° 0 mm 2 mps 669 mmHg 40%
    02:00 +25°C° 0 mm 2 mps 669 mmHg 42%
    03:00 +24°C° 0 mm 2 mps 669 mmHg 43%
    04:00 +25°C° 0 mm 2 mps 669 mmHg 44%
    05:00 +25°C° 0 mm 2 mps 669 mmHg 45%
    06:00 +26°C° 0 mm 1 mps 669 mmHg 46%
    07:00 +28°C° 0 mm 2 mps 670 mmHg 40%
    08:00 +30°C° 0 mm 2 mps 670 mmHg 34%
    09:00 +34°C° 0 mm 2 mps 670 mmHg 28%
    10:00 +35°C° 0 mm 3 mps 670 mmHg 24%
    11:00 +37°C° 0 mm 3 mps 670 mmHg 20%
    12:00 +39°C° 0 mm 3 mps 670 mmHg 16%
    13:00 +41°C° 0 mm 4 mps 670 mmHg 15%
    14:00 +42°C° 0 mm 4 mps 670 mmHg 13%
    15:00 +43°C° 0 mm 4 mps 669 mmHg 11%
    16:00 +42°C° 0 mm 4 mps 669 mmHg 13%
    17:00 +41°C° 0 mm 5 mps 669 mmHg 15%
    18:00 +40°C° 0 mm 5 mps 669 mmHg 17%
    19:00 +36°C° 0 mm 5 mps 669 mmHg 26%
    20:00 +32°C° 0 mm 5 mps 669 mmHg 35%
    21:00 +28°C° 0 mm 5 mps 669 mmHg 44%
    22:00 +27°C° 0 mm 4 mps 669 mmHg 47%
    23:00 +26°C° 0 mm 4 mps 669 mmHg 51%
    Show more